• Join FlightAware (Why Join?)
  • Login
  • US Flag 
12:26AM EDT


 

Airport Tracker/Info


-or-


 

Live Flight TrackerFlight Track Log ✈ RPA3228 ✈ 06-Sep-2013 ✈ KBNA - KDCA

Flight Track Log - Related Links

Times and Time Zones

All times are in EDT time to prevent confusion due to time zone crossing. See the RPA3228 flight status page for this flight to view local times or setup timezone preferences in your user account.

Time Position Orientation Groundspeed Altitude Reporting Facility
EDT Latitude Longitude Course Direction KTS MPH feet Rate Location/Type
07:39AM 36.1333 -86.6833 68° East 157 181 1,500  Level Nashville TRACON
07:39AM 36.1333 -86.7167 270° West 170 196 2,400 2,340 Climbing Nashville TRACON
07:40AM 36.1833 -86.7167 360° North 202 232 4,800 2,700 Climbing Nashville TRACON
07:41AM 36.2520 -86.2949 80° East  Level Estimated
07:41AM 36.2333 -86.6833 28° Northeast 234 269 7,900  Level Nashville TRACON
07:42AM 36.2942 -86.1669 64° Northeast  Level Estimated
07:42AM 36.2369 -86.5975 87° East 251 289 10,000  Level Memphis Center
07:43AM 36.3363 -86.0387 68° East  Level Estimated
07:43AM 36.2297 -86.4950 95° East 278 320 13,300  Level Memphis Center
07:44AM 36.3783 -85.9104 68° East  Level Estimated
07:44AM 36.2222 -86.3872 95° East 309 356 16,400  Level Memphis Center
07:45AM 36.2144 -86.2744 95° East 320 368 19,200 2,580 Climbing Memphis Center
07:46AM 36.2061 -86.1542 95° East 336 387 21,600 2,400 Climbing Memphis Center
07:47AM 36.2186 -86.0325 83° East 347 399 24,100 2,400 Climbing Memphis Center
07:48AM 36.2706 -85.9114 62° Northeast 347 399 26,400 2,040 Climbing Memphis Center
07:49AM 36.3086 -85.8272 61° Northeast 368 423 28,000 1,680 Climbing Indianapolis Center
07:50AM 36.3592 -85.7183 60° Northeast 376 433 29,700 1,560 Climbing Indianapolis Center
07:51AM 36.4264 -85.5786 59° Northeast 389 448 31,200 1,560 Climbing Indianapolis Center
07:52AM 36.4828 -85.4583 60° Northeast 397 457 33,000 840 Climbing Indianapolis Center
07:53AM 36.5394 -85.3403 59° Northeast 397 457 33,000 540 Level Indianapolis Center
07:54AM 36.5944 -85.2242 59° Northeast 392 451 34,200 1,080 Climbing Indianapolis Center
07:55AM 36.6394 -85.0994 66° East 392 451 35,300 1,260 Climbing Indianapolis Center
07:56AM 36.6792 -84.9672 69° East 402 463 36,800 1,020 Climbing Indianapolis Center
07:57AM 36.7192 -84.8361 69° East 403 464 37,400 900 Climbing Indianapolis Center
07:58AM 36.7586 -84.7056 69° East 402 463 38,700 780 Climbing Indianapolis Center
07:59AM 36.7981 -84.5753 69° East 400 460 39,000 120 Climbing Indianapolis Center
08:00AM 36.8406 -84.4383 69° East 414 476 39,000  Level Indianapolis Center
08:01AM 36.8889 -84.2756 70° East 427 491 39,000  Level Indianapolis Center
08:02AM 36.9306 -84.1375 69° East 424 488 39,000  Level Indianapolis Center
08:03AM 36.9717 -84.0003 69° East 421 484 39,000  Level Indianapolis Center
08:04AM 37.0122 -83.8636 70° East 421 484 39,000  Level Indianapolis Center
08:05AM 37.0533 -83.7269 69° East 418 481 39,000  Level Indianapolis Center
08:06AM 37.0933 -83.5892 70° East 418 481 39,000  Level Indianapolis Center
08:07AM 37.1328 -83.4511 70° East 416 479 39,000  Level Indianapolis Center
08:08AM 37.1731 -83.3122 70° East 419 482 39,000  Level Indianapolis Center
08:09AM 37.2142 -83.1744 69° East 420 483 39,000  Level Indianapolis Center
08:10AM 37.2542 -83.0342 70° East 422 486 39,000  Level Indianapolis Center
08:11AM 37.2933 -82.8931 71° East 422 486 39,000  Level Indianapolis Center
08:12AM 37.3331 -82.7533 70° East 422 486 39,000  Level Indianapolis Center
08:14AM 37.3792 -82.5911 70° East 419 482 39,000  Level Indianapolis Center
08:15AM 37.4178 -82.4514 71° East 420 483 39,000  Level Indianapolis Center
08:16AM 37.4567 -82.3119 71° East 421 484 39,000  Level Indianapolis Center
08:17AM 37.4961 -82.1731 70° East 421 484 39,000  Level Indianapolis Center
08:18AM 37.5353 -82.0333 70° East 422 486 39,000  Level Indianapolis Center
08:19AM 37.5733 -81.8928 71° East 423 487 39,000  Level Indianapolis Center
08:20AM 37.6117 -81.7522 71° East 424 488 39,000  Level Indianapolis Center
08:21AM 37.6500 -81.6114 71° East 424 488 39,000  Level Indianapolis Center
08:22AM 37.6881 -81.4653 72° East 423 487 39,000  Level Indianapolis Center
08:23AM 37.7264 -81.3272 71° East 426 490 39,000  Level Indianapolis Center
08:24AM 37.7700 -81.1619 71° East 425 489 39,000  Level Indianapolis Center
08:25AM 37.8142 -81.0286 67° East 422 486 39,000  Level Indianapolis Center
08:26AM 37.8633 -80.8875 66° East 422 486 39,000  Level Indianapolis Center
08:27AM 37.9111 -80.7528 66° East 421 484 39,000  Level Indianapolis Center
08:28AM 37.9592 -80.6172 66° East 423 487 39,000 -120 Level Indianapolis Center
08:29AM 38.0075 -80.4694 67° East 427 491 38,800 -600 Descending Indianapolis Center
08:30AM 38.0639 -80.3050 66° East 419 482 37,700 -1,080 Descending Washington Center
08:31AM 38.1064 -80.1783 67° East 425 489 36,400 -1,680 Descending Washington Center
08:32AM 38.1514 -80.0383 68° East 425 489 34,400 -1,800 Descending Washington Center
08:33AM 38.2003 -79.8986 66° East 425 489 32,500 -1,620 Descending Washington Center
08:34AM 38.2564 -79.7219 68° East 425 489 30,900 -1,320 Descending Washington Center
08:35AM 38.3011 -79.5736 69° East 430 495 29,900 -1,200 Descending Washington Center
08:36AM 38.3522 -79.4150 68° East 440 506 28,600 -1,200 Descending Washington Center
08:37AM 38.3983 -79.2689 68° East 440 506 27,600 -1,020 Descending Washington Center
08:38AM 38.4444 -79.1281 67° East 440 506 26,600 -840 Descending Washington Center
08:39AM 38.4819 -78.9814 72° East 435 501 26,000 -600 Descending Washington Center
08:40AM 38.5003 -78.8469 80° East 430 495 25,500 -1,200 Descending Washington Center
08:41AM 38.5253 -78.6967 78° East 430 495 23,600 -1,740 Descending Washington Center
08:42AM 38.5475 -78.5569 78° East 413 475 22,100 -1,440 Descending Washington Center
08:43AM 38.5675 -78.4169 80° East 408 470 20,700 -1,560 Descending Washington Center
08:44AM 38.5914 -78.2797 77° East 402 463 19,000 -1,680 Descending Washington Center
08:45AM 38.6275 -78.1536 70° East 388 447 17,400 -1,680 Descending Washington Center
08:46AM 38.6678 -78.0325 67° East 373 429 15,700 -1,620 Descending Washington Center
08:47AM 38.7053 -77.9167 67° East 360 414 14,200 -1,440 Descending Washington Center
08:48AM 38.7406 -77.8167 66° East 333 383 12,800 -1,380 Descending Washington Center
08:49AM 38.7983 -77.7333 48° Northeast 311 358 11,500 -1,380 Descending Washington Center
08:50AM 38.8461 -77.6361 58° Northeast 292 336 10,200 -1,200 Descending Washington Center
08:51AM 38.8767 -77.5542 64° Northeast 286 329 9,200 -1,200 Descending Washington Center
08:53AM 38.9000 -77.4167 78° East 296 341 7,500 -1,380 Descending Potomac TRACON
08:53AM 38.8667 -77.3333 117° Southeast 292 336 6,300 -840 Descending Potomac TRACON
08:54AM 38.8333 -77.2500 117° Southeast 277 319 6,000 -240 Descending Potomac TRACON
08:55AM 38.7833 -77.1833 134° Southeast 237 273 5,900 -720 Descending Potomac TRACON
08:56AM 38.7500 -77.1167 123° Southeast 232 267 4,700 -1,020 Descending Potomac TRACON
08:57AM 38.7000 -77.1167 180° South 207 238 4,000 -420 Descending Potomac TRACON
08:58AM 38.6500 -77.1000 165° South 200 230 4,000  Level Potomac TRACON
08:59AM 38.5833 -77.1000 180° South 201 231 4,000 -240 Level Potomac TRACON
09:00AM 38.5500 -77.0667 142° Southeast 214 246 3,600 -540 Descending Potomac TRACON
09:01AM 38.5833 -77.0167 50° Northeast 192 221 3,000 -300 Descending Potomac TRACON
09:02AM 38.6333 -77.0333 345° North 183 211 3,000  Level Potomac TRACON
09:03AM 38.6833 -77.0333 360° North 181 208 3,000 -360 Level Potomac TRACON
09:04AM 38.7167 -77.0333 360° North 173 199 2,400 -780 Descending Potomac TRACON
09:05AM 38.7667 -77.0333 360° North 161 185 1,600 -840 Descending Potomac TRACON
09:06AM 38.8000 -77.0333 360° North 116 133 800 -840 Descending Potomac TRACON